Hourly Data Report for October 23, 2013

All times are specified in Local Standard Time (LST). Add 1 hour to adjust for Daylight Saving Time where and when it is observed.

IQALUIT CLIMATE
NUNAVUT

63°44'50.000" N
68°32'40.000" W
33.50 m
2402592
71321
XFB

Download Data

Hourly Data (October 2013)
Hourly Data Report for October 23, 2013
Temp Definition
°C
Dew Point Temp Definition
°C
Rel Hum Definition
%
Wind Dir Definition
10's deg

Wind Spd Definition
km/h
Visibility Definition
km
Stn Press Definition
kPa
Hmdx Definition


Wind Chill Definition


Weather Definition


TIME
00:00 -0.7 -1.2 96 34 2   101.07   -1 LegendNANA
01:00 -0.4 -1.6 92 20 4   101.01   -2 LegendNANA
02:00 -0.8 -1.6 94 33 4   101.02   -2 LegendNANA
03:00 -0.7 -1.4 95 31 6   100.97   -3 LegendNANA
04:00 -0.8 -1.3 96 33 7   100.97   -3 LegendNANA
05:00 -1.0 -1.4 97 35 6   100.93   -3 LegendNANA
06:00 -0.5 -1.6 92 33 7   100.91   -3 LegendNANA
07:00 -0.4 -1.7 91 35 7   100.88   -3 LegendNANA
08:00 0.0 -2.0 86 3 2   100.87   -1 LegendNANA
09:00 0.0 -1.4 90 14 13   100.83   -4 LegendNANA
10:00 -0.1 -2.4 84 13 11   100.82   -4 LegendNANA
11:00 -0.1 -2.1 86 16 11   100.79   -4 LegendNANA
12:00 -0.2 -2.7 83 18 7   100.76   -3 LegendNANA
13:00 -0.3 -2.6 84 17 6   100.76   -2 LegendNANA
14:00 -0.4 -2.9 83   0   100.75     LegendNANA
15:00 -0.5 -2.8 84   0   100.73     LegendNANA
16:00 -0.7 -2.7 86 33 4   100.72   -2 LegendNANA
17:00 -0.6 -3.1 83 13 7   100.70   -3 LegendNANA
18:00 -1.1 -4.7 76 11 13   100.73   -5 LegendNANA
19:00 -1.2 -4.6 78 12 15   100.70   -6 LegendNANA
20:00 -1.9 -5.0 79 12 19   100.71   -7 LegendNANA
21:00 -2.4 -5.9 77 12 17   100.70   -8 LegendNANA
22:00 -2.7 -6.4 76 11 19   100.68   -8 LegendNANA
23:00 -2.8 -6.2 77 6 17   100.63   -8 LegendNANA

Notes on Data Quality.

Legend

  • E = Estimated
  • M = Missing
  • NA = Not Available
  • ‡ = Partner data that is not subject to review by the National Climate Archives
Date modified: